User: anonymous   Login
Location: South Tamworth Observatory
(43.8246°N, 71.3026°W)
Time: 15:36:45
(UTC-05:00)
Language:

Cosmos 1844 - Orbit

View from above orbital plane
View from above orbital plane
View from above satellite
View from above satellite

Ground track
Ground track

The orbit data is extracted from the following two-line orbital elements,

1 17973U 87041A   16039.93925273 +.00000137 +00000-0 +96788-4 0  9999
2 17973 070.8948 235.1976 0030379 150.7804 209.5025 14.14013615483076
Epoch (UTC): 08 February 2016 22:32:31
Eccentricity: 0.0030379
inclination: 70.8948°
perigee height: 824 km
apogee height: 867 km
right ascension of ascending node: 235.1976°
argument of perigee: 150.7804°
revolutions per day: 14.14013615
mean anomaly at epoch: 209.5025°
orbit number at epoch: 48307

The dashed part of the orbit path shows where the satellite is in the earth's shadow,  

DLR